Flag for U.S.A. Weather past 2 weeks in Fargo, North Dakota, U.S.A.

Now
75 °F

Sunny.


Feels Like: 76 °F
Forecast: 69 / 80 °F
Wind: 8 mph from Southeast

Location: Hector International Airport

Current Time: Aug 20, 2014 at 10:02:45 PM

Latest Report: Aug 20, 2014 at 8:53 PM


Visibility: 10 mi

Pressure: 29.77 "Hg

Humidity: 79%

Dew point: 68 °F

Location of FargoLocation

Historic Weather in Fargo — Graph

°F

Fargo temperature yesterday

Maximum temperature yesterday: 82 °F (at 5:53 PM)
Minimum temperature yesterday: 58 °F (at 6:53 AM)
Average temperature yesterday: 71 °F

Past Weeks' High & Low Weather Summary

 TemperatureHumidityPressure
High88 °F (Aug 16, 3:53 PM)97% (Aug 16, 6:53 AM)30.19 "Hg (Aug 16, 6:53 AM)
Low49 °F (Aug 12, 5:53 AM)33% (Aug 12, 3:53 PM)29.67 "Hg (Aug 18, 4:53 PM)
Average72 °F72%29.95 "Hg
* Reported Aug 5 8:53 PM — Aug 20 8:53 PM, Fargo, Weather by CustomWeather, © 2014

Note: Actual official high and low records may vary slightly from our data, if they occured in-between our weather recording intervals... More about our weather records

Advertising

Fargo weather history for previous 24 hours

 ConditionsComfort  
Time TempWeatherWind HumidityBarometerVisibility
8:53 PM
Aug 20
75 °FSunny.8 mph79%29.77 "Hg10 mi
7:53 PM78 °FSunny.8 mph71%29.76 "Hg10 mi
6:53 PM81 °FSunny.12 mph62%29.75 "Hg10 mi
5:53 PM82 °FSunny.14 mph56%29.75 "Hg10 mi
4:53 PM83 °FBroken clouds.10 mph57%29.76 "Hg10 mi
3:53 PM83 °FBroken clouds.13 mph59%29.77 "Hg10 mi
2:53 PM84 °FBroken clouds.13 mph57%29.77 "Hg10 mi
1:53 PM82 °FPassing clouds.14 mph58%29.77 "Hg10 mi
12:53 PM83 °FSunny.10 mph59%29.76 "Hg10 mi
11:53 AM81 °FSunny.10 mph60%29.77 "Hg10 mi
10:53 AM78 °FSunny.10 mph66%29.77 "Hg10 mi
9:53 AM75 °FSunny.14 mph71%29.76 "Hg10 mi
8:53 AM72 °FSunny.8 mph73%29.78 "Hg10 mi
7:53 AM69 °FSunny.8 mph81%29.78 "Hg10 mi
6:53 AM65 °FClear.7 mph91%29.77 "Hg10 mi
5:53 AM65 °FClear.6 mph91%29.75 "Hg10 mi
4:53 AM67 °FClear.8 mph85%29.76 "Hg10 mi
3:53 AM66 °FClear.6 mph84%29.76 "Hg10 mi
2:53 AM67 °FClear.6 mph85%29.75 "Hg10 mi
1:53 AM67 °FClear.6 mph85%29.76 "Hg10 mi
12:53 AM67 °FClear.6 mph87%29.75 "Hg10 mi
11:53 PM
Aug 19
68 °FClear.6 mph87%29.76 "Hg10 mi
10:53 PM70 °FClear.5 mph81%29.75 "Hg10 mi
Weather by CustomWeather, © 2014

See weather overviewHow to use our weather pages